When you browse on this site, cookies collect data to enhance your experience and personalize the content and advertising you see.
Visit our Privacy Policy to learn more. By continuing to use the site, you agree to this use of cookies and data.
  • In Italy
  • List of Countries
  • For 7 days
  • Water Temperature
  • Satellite Maps
  • Weather Map
  • Weather Widgets
  • user-avatar
    Login

    Hourly Weather Szadowo

    Today, 20 April, Saturday

    Time Temperature Precipitation Wind Pressure Humidity
    00:00 +3°C° 0 mm 2 mps 767 mmHg 69%
    01:00 +3°C° 0 mm 3 mps 767 mmHg 75%
    02:00 +3°C° 0 mm 2 mps 766 mmHg 78%
    03:00 +3°C° 0 mm 2 mps 766 mmHg 81%
    04:00 +3°C° 0 mm 2 mps 766 mmHg 83%
    05:00 +5°C° 0 mm 2 mps 766 mmHg 79%
    06:00 +5°C° 0 mm 3 mps 766 mmHg 75%
    07:00 +8°C° 0 mm 3 mps 767 mmHg 69%
    08:00 +10°C° 0 mm 3 mps 766 mmHg 63%
    09:00 +12°C° 0 mm 4 mps 766 mmHg 56%
    10:00 +14°C° 0 mm 4 mps 766 mmHg 50%
    11:00 +14°C° 0 mm 4 mps 766 mmHg 47%
    12:00 +15°C° 0 mm 5 mps 766 mmHg 44%
    13:00 +15°C° 0 mm 5 mps 766 mmHg 41%
    14:00 +15°C° 0 mm 5 mps 765 mmHg 42%
    15:00 +14°C° 0 mm 5 mps 765 mmHg 44%
    16:00 +13°C° 0 mm 5 mps 764 mmHg 45%
    17:00 +11°C° 0 mm 4 mps 764 mmHg 51%
    18:00 +8°C° 0 mm 4 mps 764 mmHg 58%
    19:00 +7°C° 0 mm 3 mps 764 mmHg 64%
    20:00 +5°C° 0 mm 3 mps 764 mmHg 66%
    21:00 +5°C° 0 mm 3 mps 764 mmHg 67%
    22:00 +5°C° 0 mm 2 mps 764 mmHg 69%
    23:00 +5°C° 0 mm 2 mps 764 mmHg 69%

    Tomorrow, 21 April, Sunday

    Time Temperature Precipitation Wind Pressure Humidity
    00:00 +4°C° 0 mm 2 mps 763 mmHg 69%
    01:00 +4°C° 0 mm 2 mps 763 mmHg 69%
    02:00 +4°C° 0 mm 2 mps 763 mmHg 68%
    03:00 +4°C° 0 mm 2 mps 763 mmHg 68%
    04:00 +4°C° 0 mm 2 mps 762 mmHg 67%
    05:00 +5°C° 0 mm 2 mps 762 mmHg 64%
    06:00 +7°C° 0 mm 2 mps 762 mmHg 60%
    07:00 +8°C° 0 mm 2 mps 762 mmHg 56%
    08:00 +10°C° 0 mm 2 mps 761 mmHg 52%
    09:00 +13°C° 0 mm 2 mps 761 mmHg 48%
    10:00 +14°C° 0 mm 2 mps 761 mmHg 44%
    11:00 +15°C° 0 mm 2 mps 761 mmHg 42%
    12:00 +16°C° 0 mm 2 mps 760 mmHg 41%
    13:00 +17°C° 0 mm 2 mps 760 mmHg 40%
    14:00 +17°C° 0 mm 3 mps 760 mmHg 44%
    15:00 +15°C° 0 mm 4 mps 759 mmHg 49%
    16:00 +14°C° 0 mm 5 mps 759 mmHg 53%
    17:00 +12°C° 0 mm 4 mps 759 mmHg 61%
    18:00 +10°C° 0 mm 3 mps 759 mmHg 68%
    19:00 +8°C° 0 mm 2 mps 759 mmHg 75%
    20:00 +7°C° 0 mm 2 mps 759 mmHg 79%
    21:00 +6°C° 0 mm 2 mps 759 mmHg 82%
    22:00 +5°C° 0 mm 2 mps 759 mmHg 86%
    23:00 +5°C° 0 mm 2 mps 759 mmHg 82%

    Day after tomorrow, 22 April, Monday

    Time Temperature Precipitation Wind Pressure Humidity
    00:00 +5°C° 0 mm 2 mps 759 mmHg 79%
    01:00 +4°C° 0 mm 2 mps 759 mmHg 76%
    02:00 +4°C° 0 mm 2 mps 759 mmHg 77%
    03:00 +4°C° 0 mm 2 mps 759 mmHg 78%
    04:00 +4°C° 0 mm 2 mps 759 mmHg 79%
    05:00 +4°C° 0 mm 3 mps 759 mmHg 79%
    06:00 +5°C° 0 mm 3 mps 759 mmHg 79%
    07:00 +8°C° 0 mm 3 mps 759 mmHg 79%
    08:00 +10°C° 0 mm 4 mps 759 mmHg 70%
    09:00 +12°C° 0 mm 4 mps 759 mmHg 61%
    10:00 +14°C° 0 mm 5 mps 759 mmHg 51%
    11:00 +15°C° 0 mm 5 mps 759 mmHg 50%
    12:00 +16°C° 0 mm 5 mps 759 mmHg 49%
    13:00 +17°C° 0 mm 5 mps 759 mmHg 47%
    14:00 +17°C° 0 mm 5 mps 759 mmHg 49%
    15:00 +17°C° 0 mm 5 mps 759 mmHg 51%
    16:00 +17°C° 0 mm 5 mps 759 mmHg 53%
    17:00 +15°C° 0 mm 5 mps 759 mmHg 59%
    18:00 +14°C° 0 mm 4 mps 759 mmHg 64%
    19:00 +12°C° 0 mm 4 mps 759 mmHg 70%
    20:00 +12°C° 0 mm 4 mps 759 mmHg 69%
    21:00 +11°C° 0 mm 4 mps 759 mmHg 69%
    22:00 +10°C° 0 mm 4 mps 760 mmHg 68%
    23:00 +9°C° 0 mm 5 mps 760 mmHg 66%

    23 April, Tuesday

    Time Temperature Precipitation Wind Pressure Humidity
    00:00 +8°C° 0 mm 5 mps 760 mmHg 64%
    01:00 +8°C° 0 mm 5 mps 760 mmHg 63%
    02:00 +7°C° 0 mm 5 mps 759 mmHg 62%
    03:00 +7°C° 0 mm 5 mps 759 mmHg 61%
    04:00 +6°C° 0 mm 5 mps 759 mmHg 61%
    05:00 +7°C° 0 mm 6 mps 759 mmHg 59%
    06:00 +8°C° 0 mm 7 mps 759 mmHg 57%
    07:00 +9°C° 0 mm 8 mps 759 mmHg 56%
    08:00 +11°C° 0 mm 9 mps 759 mmHg 52%
    09:00 +12°C° 0 mm 9 mps 759 mmHg 48%
    10:00 +13°C° 0 mm 10 mps 758 mmHg 45%
    11:00 +14°C° 0 mm 10 mps 758 mmHg 44%
    12:00 +16°C° 0 mm 10 mps 758 mmHg 42%
    13:00 +16°C° 0 mm 10 mps 757 mmHg 41%
    14:00 +16°C° 0 mm 10 mps 757 mmHg 43%
    15:00 +16°C° 0 mm 10 mps 756 mmHg 44%
    16:00 +16°C° 0 mm 9 mps 756 mmHg 45%
    17:00 +15°C° 0 mm 8 mps 756 mmHg 49%
    18:00 +14°C° 0 mm 7 mps 755 mmHg 52%
    19:00 +11°C° 0 mm 6 mps 755 mmHg 56%
    20:00 +11°C° 0 mm 7 mps 755 mmHg 55%
    21:00 +11°C° 0 mm 7 mps 755 mmHg 54%
    22:00 +11°C° 0 mm 8 mps 755 mmHg 54%
    23:00 +11°C° 0 mm 8 mps 755 mmHg 54%

    24 April, Wednesday

    Time Temperature Precipitation Wind Pressure Humidity
    00:00 +11°C° 0 mm 8 mps 755 mmHg 54%
    01:00 +11°C° 0 mm 8 mps 754 mmHg 54%
    02:00 +10°C° 0 mm 8 mps 754 mmHg 56%
    03:00 +10°C° 0 mm 8 mps 754 mmHg 57%
    04:00 +10°C° 0 mm 8 mps 754 mmHg 58%
    05:00 +10°C° 0.1 mm 8 mps 754 mmHg 61%
    06:00 +10°C° 0.1 mm 9 mps 753 mmHg 63%
    07:00 +10°C° 0.1 mm 9 mps 753 mmHg 65%
    08:00 +11°C° 0 mm 9 mps 753 mmHg 63%
    09:00 +13°C° 0 mm 9 mps 753 mmHg 61%
    10:00 +16°C° 0 mm 10 mps 753 mmHg 58%
    11:00 +16°C° 0 mm 10 mps 753 mmHg 58%
    12:00 +17°C° 0 mm 10 mps 753 mmHg 58%
    13:00 +18°C° 0 mm 10 mps 753 mmHg 57%
    14:00 +18°C° 0 mm 8 mps 753 mmHg 58%
    15:00 +20°C° 0 mm 7 mps 753 mmHg 59%
    16:00 +20°C° 0 mm 6 mps 753 mmHg 59%
    17:00 +19°C° 0 mm 6 mps 753 mmHg 62%
    18:00 +17°C° 0 mm 6 mps 753 mmHg 65%
    19:00 +17°C° 0 mm 5 mps 753 mmHg 67%
    20:00 +16°C° 0 mm 6 mps 753 mmHg 68%
    21:00 +15°C° 0 mm 6 mps 754 mmHg 69%
    22:00 +14°C° 0 mm 6 mps 754 mmHg 70%
    23:00 +14°C° 0 mm 6 mps 754 mmHg 73%

    25 April, Thursday

    Time Temperature Precipitation Wind Pressure Humidity
    00:00 +13°C° 0 mm 5 mps 754 mmHg 75%
    01:00 +12°C° 0 mm 5 mps 754 mmHg 78%
    02:00 +12°C° 0 mm 5 mps 754 mmHg 79%
    03:00 +12°C° 0 mm 5 mps 754 mmHg 80%
    04:00 +12°C° 0 mm 5 mps 754 mmHg 82%
    05:00 +13°C° 0 mm 5 mps 754 mmHg 80%
    06:00 +14°C° 0 mm 6 mps 754 mmHg 78%
    07:00 +15°C° 0 mm 6 mps 754 mmHg 76%
    08:00 +16°C° 0 mm 6 mps 754 mmHg 71%
    09:00 +19°C° 0 mm 6 mps 754 mmHg 67%
    10:00 +21°C° 0 mm 6 mps 754 mmHg 62%
    11:00 +22°C° 0 mm 6 mps 754 mmHg 59%
    12:00 +23°C° 0 mm 6 mps 754 mmHg 56%
    13:00 +24°C° 0 mm 6 mps 753 mmHg 53%
    14:00 +23°C° 0 mm 5 mps 753 mmHg 55%
    15:00 +23°C° 0 mm 4 mps 753 mmHg 56%
    16:00 +23°C° 0 mm 4 mps 753 mmHg 58%
    17:00 +22°C° 0 mm 3 mps 753 mmHg 61%
    18:00 +21°C° 0 mm 3 mps 752 mmHg 64%
    19:00 +20°C° 0 mm 3 mps 752 mmHg 66%
    20:00 +19°C° 0 mm 3 mps 752 mmHg 68%
    21:00 +19°C° 0 mm 4 mps 752 mmHg 70%
    22:00 +18°C° 0 mm 4 mps 752 mmHg 71%
    23:00 +17°C° 0 mm 4 mps 752 mmHg 76%
    Show more